Tracking 23610 objects as of 20-Sep-2021
HD Live streaming from Space Station
objects crossing your sky now

STARLINK-2505

Track STARLINK-2505 now!
10-day predictions
STARLINK-2505 is classified as:


NORAD ID: 48411
Int'l Code: 2021-038BL
Perigee: 354.3 km
Apogee: 359.9 km
Inclination: 53.0 °
Period: 91.5 minutes
Semi major axis: 6728 km
RCS: Unknown
Launch date: May 4, 2021
Source: United States (US)
Launch site: AIR FORCE EASTERN TEST RANGE (AFETR)
aabbcc
Your satellite tracking list
Your tracking list is empty




NASA's NSSDC Master Catalog

Two Line Element Set (TLE):
1 48411U 21038BL  21263.25001157  .00032948  00000-0  23874-3 0  9990
2 48411  53.0475  76.0505 0004148   1.3385 178.4417 15.73140706 22408
Source of the keplerian elements: AFSPC